Weather History for Kalispell, MT

Change the Weather History Date:

Saturday, March 8, 2014

  Actual Average Record
Temperature  
Mean Temperature 40 °F 32 °F  
Max Temperature 49 °F 42 °F 59 °F (1953)
Min Temperature 30 °F 23 °F -7 °F (1951)
Degree Days  
Heating Degree Days 25 32  
Month to date heating degree days 302 270  
Since 1 July heating degree days 6236 6122  
Cooling Degree Days 0 0  
Month to date cooling degree days 0 0  
Year to date cooling degree days 0 0  
Moisture  
Dew Point 31 °F    
Average Humidity 71    
Maximum Humidity 92    
Minimum Humidity 50    
Precipitation  
Precipitation T in 0.04 in 0.34 in (1916)
Month to date precipitation 1.17 0.29  
Year to date precipitation 3.61 2.59  
Snow  
Snow 0.00 in - - ()
Month to date snowfall 12.4  
Year to date snowfall 37.6  
Since 1 July snowfall 71.1  
Snow Depth 0.00 in    
Sea Level Pressure  
Sea Level Pressure 30.13 in    
Wind  
Wind Speed 8 mph (South)    
Max Wind Speed 16 mph    
Max Gust Speed 20 mph    
Visibility 10 miles    
Events Rain    
T = Trace of Precipitation, MM = Missing Value Source: NWS Daily Summary

Daily Weather History Graph

Daily Weather History Graph

Search for Another Location

Airport:

Trip Planner

Search our weather history database for the weather conditions in past years. The results will help you decide how hot, cold, wet, or windy it might be!

Date:

Astronomy

Mar. 08, 2014 Rise Set
Actual Time 7:04 AM MST 6:32 PM MST
Civil Twilight 6:33 AM MST 7:03 PM MST
Nautical Twilight 5:57 AM MST 7:39 PM MST
Astronomical Twilight 5:20 AM MST 8:16 PM MST
Moon 11:19 AM MST (3/8) 2:02 AM MST (3/8)
Length of Visible Light 12h 30m
Length of Day
11h 27m
First Quarter, 52% of the Moon is Illuminated
Mar 8
First Quarter
Mar 16
Full
Mar 23
Last Quarter
Mar 30
New
Apr 7
First Quarter

Hourly Weather History & Observations

Time (MST) Temp. Windchill Dew Point Humidity Pressure Visibility Wind Dir Wind Speed Gust Speed Precip Events Conditions
12:55 AM 37.0 °F 29.8 °F 30.9 °F 79% 30.29 in 10.0 mi SSE 10.4 mph - N/A   Overcast
1:55 AM 37.9 °F 32.1 °F 30.9 °F 76% 30.28 in 10.0 mi SSE 8.1 mph - N/A   Overcast
2:55 AM 36.0 °F 31.1 °F 30.0 °F 79% 30.27 in 10.0 mi SSW 5.8 mph - N/A   Overcast
3:55 AM 36.0 °F 29.6 °F 30.0 °F 79% 30.25 in 10.0 mi South 8.1 mph - N/A   Partly Cloudy
4:55 AM 32.0 °F 25.6 °F 28.0 °F 85% 30.26 in 10.0 mi SW 6.9 mph - N/A   Clear
5:55 AM 34.0 °F 26.6 °F 30.0 °F 85% 30.26 in 10.0 mi South 9.2 mph - N/A   Clear
6:55 AM 30.9 °F 24.3 °F 28.0 °F 89% 30.26 in 10.0 mi SW 6.9 mph - N/A   Clear
7:55 AM 33.1 °F 26.1 °F 28.9 °F 85% 30.24 in 10.0 mi SW 8.1 mph - N/A   Clear
8:55 AM 36.0 °F 29.0 °F 30.9 °F 82% 30.22 in 10.0 mi SW 9.2 mph - N/A   Clear
9:55 AM 41.0 °F 36.4 °F 32.0 °F 70% 30.20 in 10.0 mi SSW 6.9 mph - N/A   Clear
10:55 AM 43.0 °F 37.2 °F 32.0 °F 65% 30.19 in 10.0 mi South 10.4 mph - N/A   Clear
11:55 AM 46.0 °F 39.9 °F 32.0 °F 58% 30.15 in 10.0 mi South 13.8 mph - N/A   Clear
12:55 PM 46.0 °F 40.6 °F 33.1 °F 61% 30.13 in 10.0 mi South 11.5 mph - N/A   Clear
1:55 PM 46.9 °F - 30.9 °F 54% 30.08 in 10.0 mi South 11.5 mph - N/A   Clear
2:55 PM 46.0 °F 40.2 °F 30.9 °F 56% 30.07 in 10.0 mi SSE 12.7 mph - N/A   Mostly Cloudy
3:55 PM 48.9 °F - 30.9 °F 50% 30.05 in 10.0 mi South 10.4 mph - N/A   Overcast
4:55 PM 46.9 °F - 30.9 °F 54% 30.04 in 10.0 mi South 10.4 mph - N/A   Overcast
5:55 PM 45.0 °F 39.3 °F 30.0 °F 56% 30.02 in 10.0 mi South 11.5 mph - N/A   Overcast
6:55 PM 43.0 °F 38.2 °F 30.0 °F 60% 30.02 in 10.0 mi South 8.1 mph - N/A   Overcast
7:55 PM 42.1 °F - 28.9 °F 60% 30.01 in 10.0 mi Calm Calm - N/A   Overcast
8:55 PM 39.9 °F 37.8 °F 30.0 °F 68% 29.99 in 10.0 mi SW 3.5 mph - N/A   Overcast
9:55 PM 39.9 °F 34.5 °F 30.0 °F 68% 29.97 in 10.0 mi SSW 8.1 mph - N/A   Overcast
10:55 PM 39.9 °F - 30.0 °F 68% 29.95 in 10.0 mi Calm Calm - N/A   Overcast
11:55 PM 43.0 °F 38.8 °F 33.1 °F 68% 29.93 in 10.0 mi South 6.9 mph - 0.00 in Rain Light Rain